Flag for Canada Weather past 2 weeks in Timmins, Ontario, Canada

Now
21 °F

Broken clouds.


Feels Like: 8 °F
Forecast: 2 / 22 °F
Wind: 15 mph from West

Location: Timmins

Current Time: Feb 28, 2015 at 1:35:20 PM

Latest Report: Feb 28, 2015 at 1:00 PM


Visibility: 15 mi

Pressure: 30.43 "Hg

Humidity: 38%

Dew point: 0 °F

Location of TimminsLocation

Historic Weather in Timmins — Graph

°F

Timmins temperature yesterday

Maximum temperature yesterday: 19 °F (at 4:00 PM)
Minimum temperature yesterday: -11 °F (at 4:00 AM)
Average temperature yesterday: 4 °F

Past Weeks' High & Low Weather Summary

 TemperatureHumidityPressure
High19 °F (Feb 27, 4:00 PM)86% (Feb 24, 3:00 PM)30.62 "Hg (Feb 24, 3:00 PM)
Low-36 °F (Feb 20, 4:00 AM)38% (Feb 27, 3:00 PM)29.28 "Hg (Feb 24, 3:00 PM)
Average-7 °F70%30.08 "Hg
* Reported Feb 13 12:00 Noon — Feb 28 12:00 Noon, Timmins, Weather by CustomWeather, © 2015

Note: Actual official high and low records may vary slightly from our data, if they occured in-between our weather recording intervals... More about our weather records

Advertising

Timmins weather history for previous 24 hours

 ConditionsComfort  
Time TempWeatherWind HumidityBarometerVisibility
12:00 PM
Sat, Feb 28
19 °FBroken clouds.14 mph42%30.45 "Hg15 mi
11:00 AM16 °FPartly sunny.13 mph53%30.45 "Hg15 mi
10:00 AM12 °FPartly sunny.8 mph62%30.45 "Hg15 mi
9:00 AM9 °FPartly sunny.8 mph66%30.45 "Hg15 mi
8:00 AM1 °FMostly cloudy.7 mph78%30.43 "Hg15 mi
7:00 AM0 °FPassing clouds.6 mph84%30.42 "Hg15 mi
6:00 AM3 °FPartly cloudy.6 mph78%30.41 "Hg15 mi
5:00 AM3 °FPassing clouds.8 mph78%30.40 "Hg15 mi
4:00 AM3 °FPassing clouds.8 mph78%30.38 "Hg15 mi
3:00 AM3 °FPassing clouds.9 mph85%30.39 "Hg15 mi
2:00 AM3 °FPassing clouds.7 mph78%30.38 "Hg15 mi
1:00 AM3 °FPassing clouds.6 mph78%30.37 "Hg15 mi
12:00 AM5 °FPassing clouds.8 mph78%30.37 "Hg15 mi
11:00 PM
Fri, Feb 27
7 °FPassing clouds.10 mph72%30.36 "Hg15 mi
10:00 PM9 °FClear.12 mph66%30.35 "Hg15 mi
9:00 PM10 °FPassing clouds.12 mph67%30.32 "Hg15 mi
8:00 PM14 °FPassing clouds.12 mph62%30.31 "Hg15 mi
7:00 PM16 °FPassing clouds.12 mph53%30.28 "Hg15 mi
6:00 PM18 °FScattered clouds.7 mph45%30.26 "Hg15 mi
5:00 PM19 °FBroken clouds.13 mph42%30.27 "Hg15 mi
4:00 PM19 °FBroken clouds.13 mph38%30.26 "Hg15 mi
3:00 PM18 °FScattered clouds.10 mph38%30.26 "Hg15 mi
2:00 PM18 °FScattered clouds.9 mph41%30.26 "Hg15 mi
1:00 PM14 °FScattered clouds.10 mph44%30.28 "Hg15 mi
Weather by CustomWeather, © 2015

See weather overviewHow to use our weather pages